Location: Enid
(36.3960°N, 97.8780°W)
Time: 08:41:02
(UTC-05:00)

Hubble Space Telescope - Visible Passes

Search period start: 27 May 2017 00:00
Search period end: 06 June 2017 00:00
Orbit: 538 x 541 km, 28.5° (Epoch: 26 May)

Date Brightness Start Highest point End Pass type
(mag) Time Alt. Az. Time Alt. Az. Time Alt. Az.
27 May 2.9 21:24:27 10° SSE 21:24:54 10° SSE 21:25:21 10° SSE visible
28 May 2.8 21:12:55 10° S 21:14:43 13° SSE 21:16:30 10° SE visible
28 May 3.1 22:51:57 10° SW 22:52:27 12° SW 22:52:27 12° SW visible
29 May 2.5 22:41:45 10° SW 22:43:26 19° SSW 22:43:26 19° SSW visible
30 May 2.1 22:31:34 10° SW 22:34:15 25° SSW 22:34:15 25° SSW visible
31 May 1.8 22:21:25 10° WSW 22:24:55 27° S 22:24:55 27° S visible
01 Jun 1.8 22:11:18 10° WSW 22:14:48 27° S 22:15:28 25° SSE visible
02 Jun 2.0 22:01:13 10° WSW 22:04:40 26° S 22:05:56 22° SSE visible
03 Jun 2.1 21:51:09 10° WSW 21:54:32 24° S 21:56:20 18° SSE visible
04 Jun 2.2 21:41:08 10° WSW 21:44:24 23° S 21:46:43 14° SSE visible
05 Jun 2.4 21:31:09 10° WSW 21:34:15 20° SSW 21:37:04 11° SSE visible
